Location: Erp
(42.9417°N, 1.2009°E)
Time: 14:52:33
(UTC+00:00)

Cosmos 1758 - Pass Details

Date: 12 January 2026
Orbit: 479 x 500 km, 82.5° (Epoch: 18 February)

Event Time Altitude Azimuth Distance (km) Brightness Sun altitude
Rises 17:34:55 0° 345° (NNW) 2,563 6.7 -9.5°
Reaches altitude 10° 17:37:06 10° 339° (NNW) 1,674 5.8 -9.9°
Maximum altitude 17:40:35 44° 266° (W) 683 4.4 -10.5°
Drops below altitude 10° 17:44:01 10° 194° (SSW) 1,651 6.2 -11.1°
Sets 17:46:09 0° 188° (S) 2,524 7.1 -11.4°
